Flight Track Log - Related Links

Times and Time Zones

All times are in EST time to prevent confusion due to time zone crossing. See the EJA951 flight status page for this flight to view local times or setup timezone preferences in your user account.

Time Position Orientation Groundspeed Altitude Reporting Facility
EST Latitude Longitude Course Direction KTS MPH feet Rate Location/Type
Wed 12:13:26 PM 42.3500 -87.8667 166° South 198 228 5,300  Level Chicago TRACON
Wed 12:14:26 PM 42.2833 -87.8667 180° South 256 295 7,800 2,750 Climbing Chicago TRACON
Wed 12:15:26 PM 42.2000 -87.8500 172° South 293 337 10,800 2,596 Climbing Chicago TRACON
Wed 12:16:47 PM 42.1061 -87.8353 173° South 307 353 13,900 2,098 Climbing Chicago Center
Wed 12:17:49 PM 41.9869 -87.8172 174° South 360 414 15,800 1,645 Climbing Chicago Center
Wed 12:18:51 PM 41.8769 -87.8047 175° South 389 448 17,300 1,210 Climbing Chicago Center
Wed 12:19:53 PM 41.7611 -87.8222 186° South 416 479 18,300 1,200 Climbing Chicago Center
Wed 12:20:56 PM 41.6417 -87.8414 187° South 425 489 19,800 1,440 Climbing Chicago Center
Wed 12:21:58 PM 41.5161 -87.8617 187° South 443 510 21,300 1,452 Climbing Chicago Center
Wed 12:23:00 PM 41.3844 -87.8811 186° South 460 529 22,800 1,500 Climbing Chicago Center
Wed 12:24:02 PM 41.2489 -87.8922 184° South 476 548 24,400 1,645 Climbing Chicago Center
Wed 12:25:04 PM 41.0825 -87.8889 179° South 493 567 26,200 1,597 Climbing Chicago Center
Wed 12:26:06 PM 40.9419 -87.8836 178° South 501 577 27,700 1,452 Climbing Chicago Center
Wed 12:27:08 PM 40.7983 -87.8792 179° South 511 588 29,200 1,452 Climbing Chicago Center
Wed 12:28:10 PM 40.6519 -87.8750 179° South 521 600 30,700 1,452 Climbing Chicago Center
Wed 12:29:12 PM 40.5031 -87.8697 178° South 531 611 32,200 1,452 Climbing Chicago Center
Wed 12:30:14 PM 40.3528 -87.8653 179° South 539 620 33,700 1,584 Climbing Chicago Center
Wed 12:31:17 PM 40.1756 -87.8575 178° South 539 620 35,500 1,570 Climbing Chicago Center
Wed 12:32:01 PM 40.0756 -87.8533 178° South 537 618 36,500 1,415 Climbing Indianapolis Center
Wed 12:33:03 PM 39.9278 -87.8394 176° South 535 616 38,000 1,306 Climbing Indianapolis Center
Wed 12:34:05 PM 39.7872 -87.7914 165° South 528 608 39,200 968 Climbing Indianapolis Center
Wed 12:35:07 PM 39.6497 -87.7442 165° South 517 595 40,000 390 Climbing Indianapolis Center
Wed 12:36:08 PM 39.4800 -87.6903 166° South 519 597 40,000  Level Indianapolis Center
Wed 12:37:10 PM 39.3353 -87.6433 166° South 531 611 40,000  Level Indianapolis Center
Wed 12:38:12 PM 39.1914 -87.5983 166° South 530 610 40,000  Level Indianapolis Center
Wed 12:39:14 PM 39.0464 -87.5544 167° South 534 615 40,000  Level Indianapolis Center
Wed 12:40:16 PM 38.9011 -87.5100 167° South 535 616 40,000  Level Indianapolis Center
Wed 12:41:18 PM 38.7547 -87.4642 166° South 539 620 40,000  Level Indianapolis Center
Wed 12:42:19 PM 38.6097 -87.4189 166° South 537 618 40,000  Level Indianapolis Center
Wed 12:43:21 PM 38.4350 -87.3653 166° South 541 623 40,000  Level Indianapolis Center
Wed 12:44:23 PM 38.2900 -87.3225 167° South 542 624 40,000  Level Indianapolis Center
Wed 12:45:25 PM 38.1456 -87.2786 167° South 543 625 40,000 242 Level Indianapolis Center
Wed 12:46:27 PM 38.0006 -87.2342 166° South 541 623 40,500 484 Climbing Indianapolis Center
Wed 12:47:29 PM 37.8567 -87.1897 166° South 535 616 41,000 242 Climbing Indianapolis Center
Wed 12:48:31 PM 37.7119 -87.1464 167° South 534 615 41,000  Level Indianapolis Center
Wed 12:49:33 PM 37.5381 -87.0936 166° South 534 615 41,000  Level Indianapolis Center
Wed 12:50:35 PM 37.3919 -87.0528 167° South 537 618 41,000  Level Indianapolis Center
Wed 12:51:36 PM 37.2431 -87.0100 167° South 543 625 41,000  Level Indianapolis Center
Wed 12:52:38 PM 37.0947 -86.9667 167° South 542 624 41,000  Level Indianapolis Center
Wed 12:53:10 PM 37.0206 -86.9419 165° South 543 625 41,000  Level Memphis Center
Wed 12:54:12 PM 36.8722 -86.8983 167° South 541 623 41,000  Level Memphis Center
Wed 12:55:15 PM 36.7242 -86.8542 167° South 542 624 41,000  Level Memphis Center
Wed 12:56:16 PM 36.5506 -86.8028 167° South 541 623 41,000  Level Memphis Center
Wed 12:57:18 PM 36.4236 -86.7664 167° South 545 627 41,000  Level Memphis Center
Wed 12:58:20 PM 36.2678 -86.7231 167° South 547 629 41,000  Level Memphis Center
Wed 12:59:22 PM 36.0922 -86.6647 165° South 547 629 41,000  Level Memphis Center
Wed 01:00:24 PM 35.9469 -86.5919 158° South 554 638 41,000  Level Memphis Center
Wed 01:01:26 PM 35.8031 -86.5200 158° South 552 635 41,000  Level Memphis Center
Wed 01:02:29 PM 35.6594 -86.4497 158° South 551 634 41,000  Level Memphis Center
Wed 01:03:31 PM 35.5169 -86.3789 158° South 548 631 41,000  Level Memphis Center
Wed 01:04:33 PM 35.3731 -86.3089 158° South 549 632 41,000  Level Memphis Center
Wed 01:05:35 PM 35.2286 -86.2386 158° South 552 635 41,000  Level Memphis Center
Wed 01:06:37 PM 35.0756 -86.1636 158° South 552 635 41,000  Level Memphis Center
Wed 01:07:57 PM 34.8878 -86.0694 158° South 552 635 41,000  Level Atlanta Center
Wed 01:08:57 PM 34.7428 -86.0003 159° South 552 635 41,000  Level Atlanta Center
Wed 01:09:57 PM 34.5978 -85.9314 159° South 552 635 41,000  Level Atlanta Center
Wed 01:10:57 PM 34.4508 -85.8625 159° South 552 635 41,000  Level Atlanta Center
Wed 01:11:57 PM 34.3078 -85.7967 159° South 552 635 41,000  Level Atlanta Center
Wed 01:12:57 PM 34.1625 -85.7283 159° South 552 635 41,000  Level Atlanta Center
Wed 01:13:57 PM 34.0236 -85.6603 158° South 546 628 41,000  Level Atlanta Center
Wed 01:14:57 PM 33.8783 -85.5950 160° South 551 634 41,000  Level Atlanta Center
Wed 01:15:57 PM 33.7247 -85.5225 159° South 551 634 41,000  Level Atlanta Center
Wed 01:16:57 PM 33.5817 -85.4575 159° South 546 628 41,000  Level Atlanta Center
Wed 01:17:57 PM 33.4361 -85.3906 159° South 555 639 41,000  Level Atlanta Center
Wed 01:18:57 PM 33.2928 -85.3261 159° South 550 633 41,000  Level Atlanta Center
Wed 01:19:57 PM 33.1517 -85.2594 158° South 550 633 41,000  Level Atlanta Center
Wed 01:20:57 PM 33.0061 -85.1981 161° South 550 633 41,000  Level Atlanta Center
Wed 01:21:57 PM 32.8625 -85.1492 164° South 549 632 41,000  Level Atlanta Center
Wed 01:22:57 PM 32.7314 -85.1006 163° South 544 626 41,000  Level Atlanta Center
Wed 01:23:57 PM 32.5858 -85.0519 164° South 544 626 41,000  Level Atlanta Center
Wed 01:24:57 PM 32.4381 -85.0011 164° South 550 633 41,000  Level Atlanta Center
Wed 01:25:57 PM 32.2942 -84.9528 164° South 550 633 41,000  Level Atlanta Center
Wed 01:26:57 PM 32.1528 -84.9025 163° South 545 627 41,000  Level Atlanta Center
Wed 01:27:57 PM 32.0089 -84.8569 165° South 539 620 41,000  Level Atlanta Center
Wed 01:29:46 PM 31.7311 -84.7636 164° South 541 623 41,000  Level Jacksonville Center
Wed 01:30:46 PM 31.5897 -84.7169 164° South 541 623 41,000  Level Jacksonville Center
Wed 01:31:46 PM 31.4464 -84.6678 164° South 541 623 41,000  Level Jacksonville Center
Wed 01:32:46 PM 31.3050 -84.6239 165° South 536 617 41,000  Level Jacksonville Center
Wed 01:33:46 PM 31.1617 -84.5750 164° South 531 611 41,000  Level Jacksonville Center
Wed 01:34:46 PM 31.0203 -84.5289 164° South 531 611 41,000  Level Jacksonville Center
Wed 01:35:46 PM 30.8808 -84.4806 163° South 531 611 41,000  Level Jacksonville Center
Wed 01:36:46 PM 30.7394 -84.4344 164° South 531 611 41,000  Level Jacksonville Center
Wed 01:37:46 PM 30.5981 -84.3889 164° South 531 611 41,000  Level Jacksonville Center
Wed 01:38:46 PM 30.4778 -84.3267 156° South 531 611 41,000  Level Jacksonville Center
Wed 01:39:46 PM 30.3450 -84.2381 150° Southeast 540 621 41,000  Level Jacksonville Center
Wed 01:40:46 PM 30.2039 -84.1447 150° Southeast 534 615 41,000  Level Jacksonville Center
Wed 01:41:46 PM 30.0689 -84.0711 155° Southeast 534 615 41,000  Level Jacksonville Center
Wed 01:42:46 PM 29.9317 -84.0167 161° South 523 602 41,000  Level Jacksonville Center
Wed 01:43:46 PM 29.7922 -83.9625 161° South 523 602 41,000  Level Jacksonville Center
Wed 01:44:46 PM 29.6675 -83.9131 161° South 523 602 41,000  Level Jacksonville Center
Wed 01:45:46 PM 29.5300 -83.8569 160° South 523 602 41,000  Level Jacksonville Center
Wed 01:46:46 PM 29.3928 -83.8031 161° South 523 602 41,000  Level Jacksonville Center
Wed 01:47:46 PM 29.2533 -83.7469 161° South 523 602 41,000  Level Jacksonville Center
Wed 01:48:46 PM 29.1158 -83.6936 161° South 523 602 41,000  Level Jacksonville Center
Wed 01:49:46 PM 28.9783 -83.6403 161° South 523 602 41,000  Level Jacksonville Center
Wed 01:50:46 PM 28.8408 -83.5847 161° South 523 602 41,000 -69 Level Jacksonville Center
Wed 01:52:39 PM 28.5672 -83.4778 161° South 513 590 40,800 -971 Descending Miami Center
Wed 01:53:39 PM 28.4319 -83.4250 161° South 513 590 38,200 -2,650 Descending Miami Center
Wed 01:54:39 PM 28.2967 -83.3722 161° South 513 590 35,500 -1,600 Descending Miami Center
Wed 01:55:39 PM 28.1550 -83.3711 180° South 513 590 35,000 -800 Descending Miami Center
Wed 01:56:39 PM 28.0250 -83.3378 167° South 520 598 33,900 -1,350 Descending Miami Center
Wed 01:57:39 PM 27.8978 -83.2458 147° Southeast 528 608 32,300 -1,600 Descending Miami Center
Wed 01:58:39 PM 27.7664 -83.1542 148° Southeast 540 621 30,700 -1,800 Descending Miami Center
Wed 01:59:39 PM 27.6389 -83.0653 148° Southeast 540 621 28,700 -2,050 Descending Miami Center
Wed 02:00:39 PM 27.5150 -82.9814 149° Southeast 535 616 26,600 -2,100 Descending Miami Center
Wed 02:01:39 PM 27.3997 -82.8981 147° Southeast 517 595 24,500 -2,050 Descending Miami Center
Wed 02:02:39 PM 27.2761 -82.8122 148° Southeast 491 565 22,500 -1,900 Descending Miami Center
Wed 02:03:39 PM 27.1806 -82.7467 149° Southeast 464 534 20,700 -1,900 Descending Miami Center
Wed 02:04:39 PM 27.0731 -82.6736 149° Southeast 458 527 18,700 -1,950 Descending Miami Center
Wed 02:05:39 PM 26.9633 -82.5981 148° Southeast 458 527 16,800 -1,900 Descending Miami Center
Wed 02:06:39 PM 26.8617 -82.5281 148° Southeast 445 512 14,900 -1,800 Descending Miami Center
Wed 02:07:39 PM 26.7622 -82.4581 148° Southeast 431 496 13,200 -1,800 Descending Miami Center
Wed 02:08:39 PM 26.6625 -82.3931 150° Southeast 426 490 11,300 -1,050 Descending Miami Center
Wed 02:09:39 PM 26.5647 -82.3233 147° Southeast 420 483 11,100 -300 Descending Miami Center
Wed 02:10:39 PM 26.4714 -82.2542 146° Southeast 388 447 10,700 -900 Descending Miami Center
Wed 02:11:39 PM 26.4022 -82.2044 147° Southeast 325 374 9,300 -1,450 Descending Miami Center
Wed 02:12:39 PM 26.3331 -82.1528 146° Southeast 296 341 7,800 -1,500 Descending Miami Center
Wed 02:13:39 PM 26.2789 -82.0947 136° Southeast 279 321 6,300 -1,600 Descending Miami Center
Wed 02:14:39 PM 26.2353 -82.0303 127° Southeast 262 302 4,600 -1,700 Descending Miami Center
Wed 02:16:00 PM 26.0833 -81.9411 90° East  Level FlightAware Approximate
Wed 02:23:00 PM 26.1500 -81.7667 66° East  Level FlightAware Approximate
Wed 02:24:00 PM 26.1524 -81.7756 66° East  Level Estimated
Wed 02:25:00 PM 26.1524 -81.7756 66° East  Level Estimated
Wed 02:26:00 PM 26.1524 -81.7756 66° East  Level Estimated
Wed 02:27:00 PM 26.1524 -81.7756 66° East  Level Estimated
Wed 02:28:00 PM 26.1524 -81.7756 66° East  Level Estimated

Login

Don't have an account? Register now (free) for customized features, flight alerts, and more!